FW7261 Weather Reports


time (UTC)temp
F
wind
direction
speed
knots
gust
knots
rain 1hr
in
rain 24hr
in
rain mn
in
humidity
%
barometer
mb
20260507150112 55 220 1.7 6.1 0.00 0.57 0.22 83 1015.5
20260507145112 55 220 1.7 6.1 0.00 0.57 0.22 83 1015.5
20260507144112 55 220 1.7 6.1 0.00 0.57 0.22 83 1015.5
20260507143112 55 220 1.7 6.1 0.00 0.57 0.22 83 1015.5
20260507142112 55 220 1.7 6.1 0.00 0.57 0.22 83 1015.5
20260507140111 55 220 1.7 6.1 0.00 0.57 0.22 83 1015.5
20260507135112 55 220 1.7 6.1 0.00 0.57 0.22 83 1015.5
20260507134111 55 220 1.7 6.1 0.00 0.57 0.22 83 1015.5
20260507132112 55 220 1.7 6.1 0.00 0.57 0.22 83 1015.5
20260507131111 55 220 1.7 6.1 0.00 0.57 0.22 83 1015.5
20260507130111 55 220 1.7 6.1 0.00 0.57 0.22 83 1015.5
20260507125111 55 220 1.7 6.1 0.00 0.57 0.22 83 1015.5
20260507124111 55 220 1.7 6.1 0.00 0.57 0.22 83 1015.5
20260507123111 55 220 1.7 6.1 0.00 0.57 0.22 83 1015.5
20260507121111 55 220 1.7 6.1 0.00 0.57 0.22 83 1015.5
20260507120111 55 220 1.7 6.1 0.00 0.57 0.22 83 1015.5
20260507115111 55 220 1.7 6.1 0.00 0.57 0.22 83 1015.5
20260507114111 55 220 1.7 6.1 0.00 0.57 0.22 83 1015.5
20260507113111 55 220 1.7 6.1 0.00 0.57 0.22 83 1015.5
20260507112111 55 220 1.7 6.1 0.00 0.57 0.22 83 1015.5
20260507111111 55 220 1.7 6.1 0.00 0.57 0.22 83 1015.5
20260507110111 55 220 1.7 6.1 0.00 0.57 0.22 83 1015.5
20260507105111 55 220 1.7 6.1 0.00 0.57 0.22 83 1015.5
20260507104111 55 220 1.7 6.1 0.00 0.57 0.22 83 1015.5
20260507103111 55 220 1.7 6.1 0.00 0.57 0.22 83 1015.5
20260507101111 55 220 1.7 6.1 0.00 0.57 0.22 83 1015.5
20260507100111 55 220 1.7 6.1 0.00 0.57 0.22 83 1015.5
20260507095111 55 220 1.7 6.1 0.00 0.57 0.22 83 1015.5
20260507094111 55 220 1.7 6.1 0.00 0.57 0.22 83 1015.5
20260507093111 55 256 1.7 6.1 0.00 0.57 0.22 83 1015.4
20260507092112 55 265 0.0 1.7 0.00 0.57 0.22 84 1015.4
20260507091111 54 249 0.9 5.2 0.00 0.57 0.22 84 1015.4
20260507090111 54 234 0.9 4.3 0.00 0.57 0.22 85 1015.3
20260507084111 54 232 0.9 4.3 0.00 0.57 0.22 87 1015.2
20260507082111 53 256 0.0 0.9 0.00 0.57 0.22 89 1015.1
20260507081111 53 251 2.6 6.1 0.00 0.57 0.22 88 1015.1
20260507080111 52 248 0.9 4.3 0.00 0.57 0.22 90 1015.1
20260507075111 52 246 0.9 4.3 0.00 0.57 0.22 90 1015.0
20260507074111 51 238 0.9 2.6 0.00 0.57 0.22 91 1014.8
20260507071111 51 257 0.9 4.3 0.00 0.57 0.22 91 1014.7
20260507070112 51 247 0.9 4.3 0.00 0.57 0.22 92 1014.5
20260507065111 51 258 0.9 4.3 0.00 0.57 0.22 92 1014.6
20260507064111 51 220 2.6 6.1 0.01 0.57 0.22 92 1014.5
20260507063111 51 263 0.9 5.2 0.01 0.57 0.22 92 1014.5
20260507062111 51 241 0.9 4.3 0.01 0.57 0.22 93 1014.4
20260507061111 50 239 0.9 5.2 0.02 0.57 0.22 93 1014.4
20260507060111 50 256 1.7 6.1 0.02 0.57 0.22 92 1014.2
20260507055111 50 248 0.9 5.2 0.02 0.57 0.22 93 1014.3
20260507054111 50 222 1.7 4.3 0.01 0.57 0.21 92 1014.1
20260507053111 50 253 0.9 2.6 0.02 0.57 0.21 92 1014.1
20260507052111 50 232 0.9 4.3 0.02 0.57 0.21 92 1014.0
20260507050111 50 261 0.9 4.3 0.01 0.56 0.20 92 1013.6
20260507045111 50 260 0.0 1.7 0.02 0.56 0.20 92 1013.6
20260507044111 50 243 0.9 5.2 0.02 0.56 0.20 92 1013.5
20260507043111 50 235 0.9 4.3 0.01 0.55 0.20 93 1013.3
20260507042111 50 267 0.0 4.3 0.01 0.55 0.20 92 1013.3
20260507040111 50 247 0.9 6.1 0.02 0.55 0.20 92 1013.1
20260507035111 50 261 1.7 6.1 0.02 0.54 0.19 92 1013.0
20260507034111 50 244 0.9 6.1 0.02 0.54 0.19 92 1012.9
20260507032111 50 226 2.6 6.1 0.04 0.54 0.19 92 1012.7
20260507031111 50 260 3.5 7.8 0.04 0.54 0.18 92 1012.7
20260507030111 50 216 2.6 7.8 0.04 0.53 0.17 92 1012.6
20260507025111 50 197 3.5 7.8 0.06 0.53 0.17 92 1012.6
20260507024111 50 247 2.6 7.8 0.06 0.52 0.17 92 1012.5
20260507023111 49 226 2.6 9.6 0.06 0.51 0.16 92 1012.5
20260507022111 49 229 3.5 9.6 0.06 0.50 0.15 92 1012.4
20260507021111 49 242 2.6 7.0 0.06 0.50 0.14 92 1012.3
20260507020111 49 243 2.6 6.1 0.06 0.49 0.13 92 1012.3
20260507015111 49 204 4.3 8.7 0.05 0.47 0.12 92 1012.3
20260507014111 49 203 2.6 9.6 0.05 0.46 0.11 92 1012.2
20260507013112 49 229 3.5 7.8 0.04 0.46 0.10 91 1012.2
20260507012111 49 243 3.5 7.8 0.04 0.45 0.09 91 1012.1
20260507010111 49 224 3.5 7.0 0.02 0.43 0.08 91 1012.0
20260507005111 49 211 2.6 7.8 0.02 0.43 0.07 91 1012.0
20260507004111 50 168 3.5 8.7 0.02 0.42 0.06 91 1012.0
20260507003111 50 184 3.5 7.8 0.02 0.42 0.06 90 1012.0
20260507002111 50 244 5.2 10.4 0.02 0.41 0.06 90 1012.0
20260507001111 50 234 4.3 12.2 0.02 0.41 0.06 90 1012.0
20260507000111 50 250 3.5 8.7 0.02 0.41 0.06 90 1011.9
20260506234111 50 192 3.5 7.8 0.02 0.39 0.04 89 1012.0
20260506233111 50 265 3.5 10.4 0.02 0.39 0.04 89 1012.1
20260506232111 50 212 3.5 8.7 0.02 0.39 0.03 89 1011.9
20260506231111 50 220 3.5 10.4 0.02 0.39 0.03 89 1011.9
20260506230111 50 212 3.5 10.4 0.03 0.39 0.03 89 1011.9
20260506224111 50 237 4.3 10.4 0.02 0.37 0.02 89 1011.9
20260506223111 50 114 4.3 9.6 0.02 0.37 0.02 89 1011.9
20260506222111 50 199 3.5 9.6 0.02 0.36 0.01 89 1011.7
20260506221111 51 185 5.2 13.9 0.02 0.36 0.01 88 1011.6
20260506220111 51 197 6.1 12.2 0.02 0.35 0.00 88 1011.5
20260506215111 51 243 6.1 14.8 0.02 0.35 0.35 88 1011.4
20260506214111 51 280 4.3 9.6 0.02 0.35 0.35 88 1011.4
20260506212111 51 231 5.2 12.2 0.03 0.35 0.35 89 1011.3
20260506210111 51 235 2.6 10.4 0.04 0.34 0.34 90 1011.2
20260506205111 51 243 1.7 6.1 0.05 0.33 0.33 90 1011.2
20260506204111 51 204 3.5 8.7 0.06 0.33 0.33 90 1011.1
20260506203111 51 258 3.5 8.7 0.06 0.32 0.32 90 1011.2
20260506202111 51 244 2.6 7.8 0.06 0.31 0.31 90 1011.1
20260506200111 51 237 4.3 13.0 0.06 0.30 0.30 89 1011.0
20260506194111 51 190 2.6 8.7 0.06 0.28 0.28 89 1010.8
20260506193111 51 245 1.7 6.1 0.07 0.27 0.27 89 1010.6
20260506192111 51 254 0.9 4.3 0.07 0.26 0.26 90 1010.5
20260506191111 51 254 1.7 7.0 0.08 0.25 0.25 89 1010.4
20260506184111 52 220 2.6 7.0 0.08 0.21 0.21 90 1010.1
20260506183111 52 193 3.5 9.6 0.06 0.20 0.20 90 1010.0
20260506182111 52 193 3.5 7.8 0.06 0.19 0.19 90 1009.9
20260506181111 52 245 4.3 8.7 0.06 0.17 0.17 90 1009.8
20260506180111 52 204 4.3 13.9 0.06 0.16 0.16 90 1009.5
20260506175111 52 257 3.5 9.6 0.06 0.15 0.15 90 1009.4
20260506174111 52 196 5.2 13.9 0.05 0.13 0.13 90 1009.3
20260506173111 52 217 4.3 12.2 0.06 0.13 0.13 90 1009.1
20260506172111 52 235 3.5 9.6 0.06 0.13 0.13 89 1008.9
20260506171111 52 202 3.5 10.4 0.05 0.11 0.11 90 1008.8
20260506170111 53 223 3.5 9.6 0.06 0.10 0.10 89 1008.8
20260506165111 53 218 4.3 10.4 0.06 0.09 0.09 89 1008.7
20260506164111 53 164 5.2 13.0 0.06 0.09 0.09 89 1008.7
20260506163111 53 197 5.2 10.4 0.06 0.08 0.08 89 1008.8
20260506162110 53 254 4.3 12.2 0.05 0.07 0.07 88 1008.7
20260506161111 53 220 3.5 9.6 0.05 0.06 0.06 88 1008.9
20260506160109 53 246 2.6 8.7 0.03 0.05 0.05 87 1008.8
20260506155109 53 244 1.7 6.1 0.02 0.04 0.04 87 1008.7
20260506153109 53 219 4.3 8.7 0.01 0.02 0.02 86 1008.6
20260506152109 53 251 3.5 10.4 0.01 0.02 0.02 85 1008.6